| time (UTC) | temp F | wind direction | speed knots | gust knots | rain 1hr in | rain 24hr in | rain mn in | humidity % | barometer mb |
| 20260506113620 | 31 | 101 | 0.9 | 2.6 | 0.00 | 0.00 | 0.00 | 93 | 1025.5 |
| 20260506112659 | 31 | 19 | 0.9 | 2.6 | 0.00 | 0.00 | 0.00 | 93 | 1025.5 |
| 20260506111734 | 31 | 34 | 1.7 | 2.6 | 0.00 | 0.00 | 0.00 | 92 | 1025.4 |
| 20260506110922 | 31 | 19 | 1.7 | 5.2 | 0.00 | 0.00 | 0.00 | 92 | 1025.0 |
| 20260506110049 | 31 | 19 | 1.7 | 3.5 | 0.00 | 0.00 | 0.00 | 91 | 1024.9 |
| 20260506105140 | 32 | 37 | 0.9 | 2.6 | 0.00 | 0.00 | 0.00 | 90 | 1024.5 |
| 20260506104219 | 32 | 13 | 1.7 | 3.5 | 0.00 | 0.00 | 0.00 | 89 | 1024.5 |
| 20260506103400 | 32 | 19 | 0.9 | 4.3 | 0.00 | 0.00 | 0.00 | 89 | 1024.3 |
| 20260506102405 | 32 | 88 | 0.9 | 1.7 | 0.00 | 0.00 | 0.00 | 89 | 1024.3 |
| 20260506101439 | 32 | 23 | 1.7 | 5.2 | 0.00 | 0.00 | 0.00 | 88 | 1024.3 |
| 20260506100501 | 32 | 16 | 1.7 | 4.3 | 0.00 | 0.00 | 0.00 | 88 | 1024.3 |
| 20260506095505 | 32 | 22 | 1.7 | 4.3 | 0.00 | 0.00 | 0.00 | 88 | 1024.4 |
| 20260506094652 | 32 | 34 | 1.7 | 3.5 | 0.00 | 0.00 | 0.00 | 88 | 1024.4 |
| 20260506093810 | 32 | 21 | 1.7 | 4.3 | 0.00 | 0.00 | 0.00 | 86 | 1024.0 |
| 20260506092825 | 33 | 8 | 1.7 | 4.3 | 0.00 | 0.00 | 0.00 | 86 | 1023.9 |
| 20260506091912 | 33 | 8 | 0.9 | 3.5 | 0.00 | 0.00 | 0.00 | 86 | 1023.8 |
| 20260506091015 | 33 | 47 | 1.7 | 3.5 | 0.00 | 0.00 | 0.00 | 85 | 1023.7 |
| 20260506090135 | 33 | 44 | 1.7 | 3.5 | 0.00 | 0.00 | 0.00 | 85 | 1023.8 |
| 20260506085315 | 33 | 53 | 1.7 | 4.3 | 0.00 | 0.00 | 0.00 | 85 | 1023.8 |
| 20260506084340 | 33 | 10 | 2.6 | 5.2 | 0.00 | 0.00 | 0.00 | 86 | 1023.7 |
| 20260506083350 | 33 | 25 | 2.6 | 7.0 | 0.00 | 0.00 | 0.00 | 86 | 1023.5 |
| 20260506082450 | 33 | 8 | 2.6 | 7.8 | 0.00 | 0.00 | 0.00 | 86 | 1023.5 |
| 20260506081550 | 33 | 32 | 1.7 | 5.2 | 0.00 | 0.00 | 0.00 | 87 | 1023.5 |
| 20260506080710 | 33 | 34 | 1.7 | 5.2 | 0.00 | 0.00 | 0.00 | 86 | 1023.5 |
| 20260506073225 | 32 | 28 | 2.6 | 7.8 | 0.00 | 0.00 | 0.00 | 88 | 1023.6 |
| 20260506072300 | 32 | 140 | 1.7 | 4.3 | 0.00 | 0.00 | 0.00 | 90 | 1023.8 |
| 20260506071444 | 32 | 26 | 1.7 | 3.5 | 0.00 | 0.00 | 0.00 | 91 | 1023.9 |
| 20260506070505 | 32 | 56 | 1.7 | 4.3 | 0.00 | 0.00 | 0.00 | 91 | 1023.7 |
| 20260506062110 | 32 | 357 | 1.7 | 4.3 | 0.00 | 0.00 | 0.00 | 91 | 1023.8 |
| 20260506061252 | 32 | 11 | 2.6 | 6.1 | 0.00 | 0.00 | 0.00 | 92 | 1023.5 |
| 20260506060430 | 32 | 8 | 2.6 | 4.3 | 0.00 | 0.00 | 0.00 | 91 | 1023.6 |
| 20260506050925 | 33 | 43 | 1.7 | 4.3 | 0.00 | 0.00 | 0.00 | 88 | 1023.0 |
| 20260506044310 | 33 | 58 | 0.9 | 2.6 | 0.00 | 0.00 | 0.00 | 91 | 1023.0 |
| 20260506043335 | 33 | 53 | 0.9 | 2.6 | 0.00 | 0.00 | 0.00 | 91 | 1023.0 |
| 20260506042405 | 33 | 136 | 0.0 | 1.7 | 0.00 | 0.00 | 0.00 | 91 | 1022.9 |
| 20260506041510 | 33 | 36 | 0.9 | 2.6 | 0.00 | 0.00 | 0.00 | 92 | 1022.9 |
| 20260506040652 | 33 | 39 | 1.7 | 4.3 | 0.00 | 0.00 | 0.00 | 92 | 1023.1 |
| 20260506035750 | 33 | 101 | 0.9 | 2.6 | 0.00 | 0.00 | 0.00 | 93 | 1023.0 |
| 20260506034935 | 33 | 113 | 0.9 | 1.7 | 0.00 | 0.00 | 0.00 | 93 | 1022.9 |
| 20260506033940 | 33 | 68 | 0.9 | 3.5 | 0.00 | 0.00 | 0.00 | 93 | 1022.7 |
| 20260506033025 | 33 | 41 | 0.9 | 3.5 | 0.00 | 0.00 | 0.00 | 93 | 1022.7 |
| 20260506032040 | 33 | 106 | 0.9 | 5.2 | 0.00 | 0.00 | 0.00 | 92 | 1022.3 |
| 20260506031140 | 33 | 22 | 1.7 | 5.2 | 0.00 | 0.00 | 0.00 | 92 | 1022.2 |
| 20260506030210 | 33 | 45 | 0.9 | 3.5 | 0.00 | 0.00 | 0.00 | 93 | 1021.9 |
| 20260506025325 | 33 | 52 | 1.7 | 4.3 | 0.00 | 0.00 | 0.00 | 93 | 1021.6 |
| 20260506024502 | 34 | 49 | 0.9 | 2.6 | 0.00 | 0.00 | 0.00 | 93 | 1021.3 |
| 20260506023625 | 33 | 41 | 1.7 | 4.3 | 0.00 | 0.00 | 0.00 | 93 | 1021.3 |
| 20260506022825 | 34 | 27 | 2.6 | 10.4 | 0.00 | 0.00 | 0.00 | 93 | 1021.2 |
| 20260506021905 | 34 | 12 | 0.9 | 3.5 | 0.00 | 0.00 | 0.00 | 94 | 1020.8 |
| 20260506020915 | 34 | 51 | 0.9 | 3.5 | 0.00 | 0.00 | 0.00 | 94 | 1020.7 |
| 20260506020100 | 34 | 56 | 0.0 | 1.7 | 0.00 | 0.00 | 0.00 | 95 | 1020.5 |
| 20260506015232 | 34 | 67 | 0.9 | 2.6 | 0.00 | 0.00 | 0.00 | 95 | 1020.4 |
| 20260506014235 | 36 | 68 | 2.6 | 4.3 | 0.00 | 0.00 | 0.00 | 95 | 1019.5 |
| 20260506013420 | 36 | 0.0 | 0.9 | 0.00 | 0.00 | 0.00 | 95 | 1019.2 | |
| 20260506012555 | 36 | 0.0 | 0.9 | 0.00 | 0.00 | 0.00 | 95 | 1019.1 | |
| 20260506011659 | 36 | 77 | 0.0 | 0.9 | 0.00 | 0.00 | 0.00 | 95 | 1018.8 |
| 20260506010805 | 36 | 123 | 0.9 | 2.6 | 0.00 | 0.00 | 0.00 | 95 | 1018.7 |
| 20260506005955 | 36 | 140 | 0.9 | 2.6 | 0.00 | 0.00 | 0.00 | 95 | 1018.9 |
| 20260506005130 | 36 | 151 | 1.7 | 3.5 | 0.00 | 0.00 | 0.00 | 95 | 1018.9 |
| 20260506004305 | 36 | 89 | 0.9 | 1.7 | 0.00 | 0.00 | 0.00 | 95 | 1019.1 |
| 20260506003312 | 36 | 137 | 0.9 | 2.6 | 0.00 | 0.00 | 0.00 | 95 | 1019.2 |
| 20260506002340 | 36 | 146 | 0.9 | 3.5 | 0.00 | 0.00 | 0.00 | 95 | 1019.0 |
| 20260506001410 | 36 | 120 | 1.7 | 3.5 | 0.00 | 0.00 | 0.00 | 95 | 1018.8 |
| 20260506000550 | 36 | 134 | 1.7 | 2.6 | 0.00 | 0.00 | 0.00 | 95 | 1018.5 |
| 20260505235620 | 36 | 127 | 1.7 | 3.5 | 0.00 | 0.00 | 0.00 | 95 | 1018.3 |
| 20260505234740 | 37 | 139 | 0.9 | 2.6 | 0.00 | 0.00 | 0.00 | 95 | 1018.1 |
| 20260505233915 | 36 | 152 | 3.5 | 5.2 | 0.00 | 0.00 | 0.00 | 94 | 1017.9 |
| 20260505233031 | 36 | 133 | 2.6 | 5.2 | 0.00 | 0.00 | 0.00 | 94 | 1018.0 |
| 20260505232052 | 37 | 115 | 1.7 | 3.5 | 0.00 | 0.00 | 0.00 | 94 | 1017.9 |
| 20260505231120 | 37 | 159 | 2.6 | 10.4 | 0.00 | 0.00 | 0.00 | 94 | 1017.4 |
| 20260505230220 | 37 | 151 | 2.6 | 9.6 | 0.00 | 0.00 | 0.00 | 94 | 1017.3 |
| 20260505225306 | 37 | 165 | 2.6 | 7.0 | 0.00 | 0.00 | 0.00 | 94 | 1017.1 |
| 20260505224310 | 37 | 145 | 2.6 | 7.8 | 0.00 | 0.00 | 0.00 | 94 | 1016.8 |
| 20260505223325 | 37 | 154 | 1.7 | 4.3 | 0.00 | 0.00 | 0.00 | 94 | 1017.0 |
| 20260505222350 | 37 | 156 | 1.7 | 4.3 | 0.00 | 0.00 | 0.00 | 94 | 1016.9 |
| 20260505221505 | 37 | 145 | 2.6 | 6.1 | 0.00 | 0.00 | 0.00 | 94 | 1017.2 |
| 20260505220630 | 37 | 135 | 1.7 | 3.5 | 0.00 | 0.00 | 0.00 | 94 | 1017.2 |
| 20260505215645 | 38 | 147 | 3.5 | 5.2 | 0.00 | 0.00 | 0.00 | 94 | 1017.2 |
| 20260505214845 | 38 | 156 | 1.7 | 5.2 | 0.00 | 0.00 | 0.00 | 94 | 1017.5 |
| 20260505214010 | 38 | 158 | 1.7 | 3.5 | 0.00 | 0.00 | 0.00 | 94 | 1017.5 |
| 20260505213135 | 37 | 150 | 1.7 | 4.3 | 0.00 | 0.00 | 0.00 | 94 | 1017.7 |
| 20260505212310 | 38 | 133 | 1.7 | 5.2 | 0.00 | 0.00 | 0.00 | 94 | 1017.4 |
| 20260505211412 | 38 | 150 | 2.6 | 7.0 | 0.00 | 0.00 | 0.00 | 94 | 1017.5 |
| 20260505210545 | 38 | 163 | 2.6 | 4.3 | 0.00 | 0.00 | 0.00 | 94 | 1017.6 |
| 20260505205610 | 38 | 148 | 1.7 | 5.2 | 0.00 | 0.00 | 0.00 | 94 | 1017.9 |
| 20260505204700 | 38 | 148 | 2.6 | 5.2 | 0.00 | 0.00 | 0.00 | 94 | 1017.7 |
| 20260505203725 | 38 | 135 | 1.7 | 3.5 | 0.00 | 0.00 | 0.00 | 94 | 1017.6 |
| 20260505202850 | 38 | 145 | 1.7 | 4.3 | 0.00 | 0.00 | 0.00 | 94 | 1017.7 |
| 20260505202000 | 38 | 135 | 2.6 | 5.2 | 0.00 | 0.00 | 0.00 | 94 | 1017.9 |
| 20260505201005 | 38 | 134 | 2.6 | 7.8 | 0.00 | 0.00 | 0.00 | 94 | 1018.1 |
| 20260505200200 | 38 | 161 | 2.6 | 7.8 | 0.00 | 0.00 | 0.00 | 94 | 1018.1 |
| 20260505195235 | 38 | 143 | 1.7 | 3.5 | 0.00 | 0.00 | 0.00 | 94 | 1018.2 |
| 20260505194250 | 38 | 153 | 1.7 | 3.5 | 0.00 | 0.00 | 0.00 | 94 | 1018.2 |
| 20260505193320 | 38 | 146 | 1.7 | 4.3 | 0.00 | 0.00 | 0.00 | 94 | 1018.4 |
| 20260505192505 | 39 | 159 | 1.7 | 6.1 | 0.00 | 0.00 | 0.00 | 94 | 1017.8 |
| 20260505191645 | 39 | 155 | 1.7 | 3.5 | 0.00 | 0.00 | 0.00 | 94 | 1017.9 |
| 20260505190655 | 39 | 175 | 2.6 | 5.2 | 0.00 | 0.00 | 0.00 | 94 | 1018.1 |
| 20260505185824 | 39 | 137 | 1.7 | 4.3 | 0.00 | 0.00 | 0.00 | 94 | 1018.1 |
| 20260505184852 | 39 | 116 | 2.6 | 7.0 | 0.00 | 0.00 | 0.00 | 93 | 1018.4 |
| 20260505184000 | 38 | 133 | 2.6 | 7.0 | 0.00 | 0.00 | 0.00 | 93 | 1018.5 |
| 20260505183030 | 38 | 92 | 2.6 | 6.1 | 0.00 | 0.00 | 0.00 | 93 | 1018.9 |
| 20260505182050 | 38 | 137 | 4.3 | 10.4 | 0.00 | 0.00 | 0.00 | 93 | 1019.0 |
| 20260505181210 | 38 | 130 | 4.3 | 7.8 | 0.00 | 0.00 | 0.00 | 92 | 1019.1 |
| 20260505180402 | 39 | 145 | 4.3 | 8.7 | 0.00 | 0.00 | 0.00 | 93 | 1019.0 |
| 20260505175545 | 39 | 108 | 2.6 | 4.3 | 0.00 | 0.00 | 0.00 | 92 | 1019.1 |
| 20260505174640 | 38 | 140 | 2.6 | 6.1 | 0.00 | 0.00 | 0.00 | 91 | 1019.3 |
| 20260505173640 | 38 | 211 | 0.9 | 2.6 | 0.00 | 0.00 | 0.00 | 91 | 1019.6 |
| 20260505172645 | 38 | 79 | 2.6 | 5.2 | 0.00 | 0.00 | 0.00 | 90 | 1019.7 |
| 20260505171800 | 38 | 141 | 2.6 | 6.1 | 0.00 | 0.00 | 0.00 | 90 | 1019.8 |
| 20260505170950 | 38 | 135 | 3.5 | 7.0 | 0.00 | 0.00 | 0.00 | 88 | 1019.8 |
| 20260505170052 | 38 | 158 | 2.6 | 5.2 | 0.00 | 0.00 | 0.00 | 88 | 1019.8 |
| 20260505165105 | 38 | 119 | 2.6 | 5.2 | 0.00 | 0.00 | 0.00 | 88 | 1019.6 |
| 20260505164110 | 38 | 108 | 2.6 | 4.3 | 0.00 | 0.00 | 0.00 | 87 | 1019.4 |
| 20260505163215 | 38 | 62 | 1.7 | 4.3 | 0.00 | 0.00 | 0.00 | 86 | 1019.4 |
| 20260505162340 | 39 | 32 | 1.7 | 4.3 | 0.00 | 0.00 | 0.00 | 86 | 1019.4 |
| 20260505161421 | 39 | 60 | 1.7 | 4.3 | 0.00 | 0.00 | 0.00 | 85 | 1019.4 |
| 20260505160622 | 39 | 41 | 1.7 | 7.0 | 0.00 | 0.00 | 0.00 | 85 | 1019.3 |
| 20260505153035 | 39 | 87 | 2.6 | 5.2 | 0.00 | 0.00 | 0.00 | 84 | 1019.1 |
| 20260505152105 | 40 | 36 | 2.6 | 5.2 | 0.00 | 0.00 | 0.00 | 82 | 1019.0 |
| 20260505151250 | 40 | 57 | 2.6 | 6.1 | 0.00 | 0.00 | 0.00 | 80 | 1018.6 |
| 20260505150255 | 41 | 104 | 1.7 | 3.5 | 0.00 | 0.00 | 0.00 | 80 | 1018.3 |
| 20260505125019 | 44 | 148 | 4.3 | 6.1 | 0.00 | 0.00 | 0.00 | 79 | 1016.0 |
| 20260505124049 | 44 | 147 | 3.5 | 7.0 | 0.00 | 0.00 | 0.00 | 78 | 1015.8 |
| 20260505123249 | 44 | 173 | 2.6 | 5.2 | 0.00 | 0.00 | 0.00 | 77 | 1015.7 |
| 20260505122419 | 44 | 112 | 2.6 | 5.2 | 0.00 | 0.00 | 0.00 | 77 | 1015.1 |
| 20260505121529 | 44 | 75 | 3.5 | 5.2 | 0.00 | 0.00 | 0.00 | 77 | 1015.0 |
| 20260505120719 | 44 | 33 | 2.6 | 5.2 | 0.00 | 0.00 | 0.00 | 76 | 1014.8 |
| 20260505115759 | 45 | 137 | 2.6 | 4.3 | 0.00 | 0.00 | 0.00 | 75 | 1014.5 |
| 20260505114859 | 45 | 183 | 2.6 | 5.2 | 0.00 | 0.00 | 0.00 | 74 | 1014.3 |